Change the Weather History Date:

Tuesday, January 22, 2013

  Actual Average Record
Temperature  
Mean Temperature 62 °F 58 °F  
Max Temperature 79 °F 70 °F 89 °F (1948)
Min Temperature 44 °F 46 °F 19 °F (1937)
Degree Days  
Heating Degree Days 3 7  
Month to date heating degree days 222 178  
Since 1 July heating degree days 523 564  
Cooling Degree Days 0 0  
Month to date cooling degree days 1 0  
Year to date cooling degree days 1 0  
Growing Degree Days 12 (Base 50)    
Moisture  
Dew Point 12 °F    
Average Humidity 16    
Maximum Humidity 25    
Minimum Humidity 6    
Precipitation  
Precipitation 0.00 in 0.03 in 1.93 in (1943)
Month to date precipitation T 0.86  
Year to date precipitation T 0.86  
Since 1 July precipitation 1.22  
Snow  
Snow 0.00 in - - ()
Month to date snowfall 0.0  
Year to date snowfall 0.0  
Since 1 July snowfall 0.0  
Snow Depth 0.00 in    
Sea Level Pressure  
Sea Level Pressure 30.11 in    
Wind  
Wind Speed 5 mph (NNW)    
Max Wind Speed 10 mph    
Max Gust Speed 14 mph    
Visibility 10 miles    
Events      
T = Trace of Precipitation, MM = Missing Value Source: NWS Daily Summary

Daily Weather History Graph

Daily Weather History Graph

Search for Another Location

Airport or City:

Trip Planner

Search our weather history database for the weather conditions in past years. The results will help you decide how hot, cold, wet, or windy it might be!

Date:

Astronomy

Jan. 22, 2013 Rise Set
Actual Time 6:48 AM PST 5:07 PM PST
Civil Twilight 6:21 AM PST 5:34 PM PST
Nautical Twilight 5:51 AM PST 6:04 PM PST
Astronomical Twilight 5:21 AM PST 6:34 PM PST
Moon 1:35 PM PST (1/22) 3:11 AM PST (1/22)
Length of Visible Light 11h 12m
Length of Day
10h 19m
Waxing Gibbous, 83% of the Moon is Illuminated
Jan 22
Waxing Gibbous
Jan 26
Full
Feb 3
Last Quarter
Feb 9
New
Feb 17
First Quarter

Hourly Weather History & Observations

Time (PST) Temp. Windchill Dew Point Humidity Pressure Visibility Wind Dir Wind Speed Gust Speed Precip Events Conditions
12:53 AM 55.0 °F - 8.1 °F 15% 30.11 in 10.0 mi NNW 6.9 mph - N/A   Clear
1:53 AM 53.1 °F - 7.0 °F 16% 30.12 in 10.0 mi NNW 6.9 mph - N/A   Clear
2:53 AM 48.0 °F - 12.9 °F 24% 30.11 in 10.0 mi NW 8.1 mph - N/A   Clear
3:53 AM 51.1 °F - 9.0 °F 18% 30.11 in 10.0 mi NNW 10.4 mph - N/A   Clear
4:53 AM 50.0 °F - 9.0 °F 19% 30.11 in 10.0 mi NNW 4.6 mph - N/A   Clear
5:53 AM 46.0 °F 43.1 °F 10.0 °F 23% 30.12 in 10.0 mi NNW 5.8 mph - N/A   Clear
6:53 AM 46.9 °F - 12.0 °F 24% 30.13 in 10.0 mi NNW 9.2 mph - N/A   Clear
7:53 AM 51.1 °F - 7.0 °F 17% 30.14 in 10.0 mi NNW 5.8 mph - N/A   Clear
8:53 AM 62.1 °F - 14.0 °F 15% 30.15 in 10.0 mi Calm Calm - N/A   Clear
9:53 AM 71.1 °F - 12.0 °F 10% 30.15 in 10.0 mi Calm Calm - N/A   Clear
10:53 AM 73.9 °F - 5.0 °F 7% 30.14 in 10.0 mi Calm Calm - N/A   Clear
11:53 AM 75.9 °F - 3.9 °F 6% 30.11 in 10.0 mi East 4.6 mph - N/A   Clear
12:53 PM 77.0 °F - 10.0 °F 8% 30.08 in 10.0 mi Variable 4.6 mph - N/A   Clear
1:53 PM 78.1 °F - 8.1 °F 7% 30.06 in 10.0 mi ESE 5.8 mph - N/A   Clear
2:53 PM 77.0 °F - 10.9 °F 8% 30.06 in 10.0 mi East 6.9 mph - N/A   Clear
3:53 PM 75.9 °F - 10.9 °F 8% 30.06 in 10.0 mi ESE 4.6 mph - N/A   Mostly Cloudy
4:53 PM 73.0 °F - 14.0 °F 11% 30.06 in 10.0 mi Calm Calm - N/A   Mostly Cloudy
5:53 PM 66.0 °F - 25.0 °F 21% 30.07 in 10.0 mi Calm Calm - N/A   Mostly Cloudy
6:53 PM 64.0 °F - 21.0 °F 19% 30.09 in 10.0 mi NNW 8.1 mph - N/A   Clear
7:53 PM 62.1 °F - 18.0 °F 18% 30.10 in 10.0 mi NW 4.6 mph - N/A   Clear
8:53 PM 60.1 °F - 17.1 °F 19% 30.11 in 10.0 mi NNW 4.6 mph - N/A   Mostly Cloudy
9:53 PM 59.0 °F - 18.0 °F 20% 30.11 in 10.0 mi NNW 5.8 mph - N/A   Mostly Cloudy
10:53 PM 55.0 °F - 18.0 °F 23% 30.12 in 10.0 mi NNW 8.1 mph - N/A   Clear
11:53 PM 55.0 °F - 18.0 °F 23% 30.12 in 10.0 mi NW 8.1 mph - N/A   Clear